Vertical_Velocity
-2 -2 -2 -1 -0 -1 -0 2 5 5 4 3 2 1 -0 -0 -1 -1 -1 -0 0 1 1 1 -1 -2 -2 -1 0 0 -0 -1 -1 -2 -2 -3 -3 -2 -2 -1 -1 -1 -0 -1 -1 -1 -1 -1 -1 -1 -2 -2 -3 -4 -4 -2 -1 -1 -1 -1 -1 -1 -1 -1 -1 -2 -2 -3 -3
-4 -3 -1 1 2 2 3 5 5 4 2 1 -0 -1 -1 -1 -1 -1 -1 -1 -0 0 0 -0 -1 -2 -2 -1 0 1 0 -0 -1 -2 -2 -3 -3 -2 -1 -1 -1 -1 -0 -0 -1 -2 -2 -1 -1 -1 -2 -4 -3 -3 -3 -3 -1 -1 -2 -3 -3 -2 -1 -0 -2 -3 -3 -3 -2
-1 -0 1 3 4 5 5 4 2 1 -0 -1 -1 -1 -1 -1 -0 -0 -1 -1 -1 -1 -1 -2 -1 -1 -0 0 1 1 -0 -1 -1 -2 -2 -3 -3 -2 -1 -1 -1 -1 -0 -0 -1 -2 -2 -1 -1 -2 -3 -4 -3 -3 -2 -3 -2 -1 -1 -3 -3 -2 -1 -0 -2 -2 -3 -2 -2
1 1 1 2 4 4 4 3 1 -0 -1 -1 -1 -0 -0 -0 -0 -1 -1 -1 -2 -2 -3 -2 -1 0 1 1 1 -0 -1 -1 -1 -1 -2 -3 -3 -3 -2 -1 -0 -0 -1 -2 -2 -3 -3 -2 -2 -2 -3 -3 -2 -1 -1 -1 -1 -1 -1 -2 -1 -1 -0 -0 -1 -2 -2 -2 -2
1 1 1 2 2 3 3 2 1 -0 -1 -0 -0 -0 -0 -0 -1 -1 -2 -2 -3 -3 -2 -1 -0 0 1 1 -0 -1 -1 -1 -0 -1 -2 -3 -3 -3 -2 -1 -0 -1 -2 -2 -2 -2 -2 -2 -2 -2 -2 -2 -1 -1 -1 -0 0 -0 -0 -0 -0 0 0 0 -0 -1 -2 -3 -3
1 2 2 2 2 2 2 2 1 -0 -0 0 0 -1 -1 -1 -2 -2 -2 -3 -3 -2 -1 -0 -0 -0 -0 -1 -1 -1 -1 0 0 -0 -1 -2 -3 -2 -1 -1 -1 -1 -2 -2 -1 -1 -2 -2 -2 -2 -2 -2 -2 -1 -1 1 1 1 1 1 0 0 1 1 -0 -1 -2 -2 -3
2 2 2 1 2 2 1 1 0 -0 -1 -0 -1 -2 -2 -2 -2 -2 -2 -2 -1 -1 -1 -1 -1 -1 -1 -1 -2 -1 -1 1 1 0 -1 -2 -2 -2 -2 -1 -1 -1 -1 -1 -1 -2 -2 -2 -1 -2 -3 -2 -1 -1 -1 -0 0 1 1 -0 -1 -1 0 0 0 -0 -1 -1 -2
2 1 1 1 1 1 0 -0 -1 -1 -2 -2 -2 -2 -2 -1 -1 -1 -1 -1 -1 -2 -2 -1 -1 -1 -1 -1 -1 -1 -1 0 1 0 -0 -1 -2 -2 -2 -2 -1 -1 -1 -1 -1 -2 -2 -1 -1 -1 -3 -3 -3 -3 -2 -1 -0 0 0 0 -0 -0 -0 -1 0 0 0 -1 -1
1 1 0 1 0 -0 -1 -1 -2 -2 -2 -2 -2 -1 -1 -1 -1 -1 -1 -2 -2 -2 -2 -1 -1 -1 -1 -1 -1 -1 -1 -1 -0 -0 -0 -1 -2 -2 -3 -2 -2 -2 -1 -1 -1 -1 -1 -1 -1 -1 -1 -1 -1 -2 -2 -1 -1 -0 -0 0 1 2 2 1 1 0 0 -0 -1
0 0 -0 -1 -1 -1 -1 -1 -2 -2 -2 -2 -1 -1 -0 -1 -1 -1 -2 -3 -2 -2 -2 -2 -1 -1 -1 -1 -1 -1 -1 -1 -1 -1 -1 -1 -2 -2 -3 -3 -2 -2 -2 -1 -1 -1 -0 -0 -0 -0 -0 0 1 0 -0 -0 -0 -0 0 1 2 2 2 2 1 1 1 0 -0
-0 -1 -1 -2 -2 -2 -1 -1 -2 -2 -1 -1 -1 -1 -1 -1 -2 -2 -2 -2 -2 -2 -2 -1 -1 -2 -2 -2 -2 -2 -2 -1 -1 -1 -1 -2 -2 -3 -3 -3 -2 -1 -1 -1 -0 0 0 0 0 -0 -1 -1 -0 -0 -0 -0 -0 0 0 0 2 3 3 2 2 1 1 0 -0
-1 -2 -2 -2 -2 -2 -2 -2 -2 -1 -1 -1 -1 -1 -2 -2 -2 -3 -2 -2 -2 -2 -2 -2 -2 -2 -2 -2 -2 -2 -1 -1 -2 -2 -2 -2 -2 -2 -1 -1 -0 -0 -1 -1 -1 0 1 1 1 0 -1 -1 -1 -1 -1 -1 -1 -1 -1 -1 0 2 2 2 2 1 1 1 2
-2 -2 -2 -2 -2 -2 -2 -2 -2 -1 -1 -1 -2 -2 -2 -3 -3 -2 -2 -2 -3 -3 -3 -3 -3 -3 -2 -2 -2 -2 -2 -2 -2 -2 -2 -2 -1 0 1 1 1 -0 -1 -1 -0 1 1 2 1 1 0 -0 -1 -1 -1 -1 -2 -3 -3 -4 -4 -3 -2 -1 -0 1 2 3 6
-2 -2 -2 -2 -2 -2 -1 -1 -1 -1 -1 -1 -2 -2 -2 -3 -3 -3 -3 -3 -3 -3 -3 -3 -3 -3 -2 -2 -2 -2 -1 -1 -1 -1 -1 -0 1 2 2 1 1 -0 -1 -1 1 3 4 3 1 0 0 0 -0 -1 -1 -2 -3 -3 -4 -5 -6 -6 -5 -3 -0 3 6 9 12
-2 -2 -2 -2 -2 -1 -1 -1 -1 -1 -1 -1 -1 -2 -3 -3 -3 -4 -4 -4 -4 -4 -3 -3 -3 -2 -2 -1 -1 -1 -1 -0 -0 0 1 1 2 2 2 1 1 -0 -1 -1 0 1 2 1 1 1 1 1 1 0 -0 -1 -0 -0 -0 -1 -1 -1 1 3 6 10 12 14 16
-1 -1 -1 -1 -1 -1 -1 -1 -1 -1 -1 -1 -2 -3 -3 -4 -4 -4 -4 -3 -3 -3 -2 -2 -2 -1 -1 -1 -0 0 0 0 1 1 2 2 2 1 1 1 0 -0 -0 -0 -0 0 0 0 1 1 2 1 1 1 1 2 3 4 4 4 5 7 9 12 14 15 16 15 16
1 0 -1 -1 -1 -1 -1 -0 -1 -1 -2 -2 -3 -3 -4 -4 -4 -4 -3 -3 -2 -2 -1 -1 -0 0 0 0 0 1 1 0 1 1 1 1 1 1 1 0 0 0 0 1 1 1 1 1 1 2 2 1 1 0 1 3 4 6 6 8 10 13 15 16 16 15 14 13 12
1 -0 -1 -1 -1 -1 -1 -1 -1 -1 -2 -2 -3 -3 -3 -3 -2 -2 -2 -1 -1 -0 0 0 1 1 1 1 0 0 1 0 0 0 1 1 1 1 1 1 0 1 1 1 2 2 2 1 1 2 1 1 0 -0 0 2 3 5 8 11 15 17 18 17 14 11 10 10 9
-0 -1 -1 -1 -1 -0 -0 -0 -1 -1 -1 -1 -2 -2 -1 -1 -1 -0 -0 -0 -0 0 1 1 1 1 1 1 -0 -0 -0 0 -0 -0 0 1 1 2 2 1 1 1 1 1 1 1 1 1 1 1 1 1 -0 -0 -0 0 2 5 10 16 19 20 19 15 11 10 9 9 9
0 0 0 0 1 1 1 1 0 -0 -0 -1 -0 0 0 1 1 1 1 -0 -0 0 1 1 0 0 -0 -0 -0 -0 -0 -0 0 0 0 0 1 1 1 1 1 1 1 1 1 1 1 1 1 1 0 -0 -0 -0 0 1 4 8 13 19 21 21 18 15 12 11 11 10 9
2 2 2 2 2 2 2 1 1 1 0 0 1 1 1 1 1 1 0 -1 -1 -0 0 -0 -0 -0 -0 -0 0 -0 -0 -0 1 0 0 0 0 0 0 1 1 1 1 1 1 0 0 -0 -0 -0 -0 0 1 2 4 7 10 13 16 19 19 18 16 14 12 11 9 7 6
3 3 3 3 2 2 2 1 1 1 1 0 1 1 1 1 0 -0 -1 -1 -0 0 0 -0 -0 0 0 0 0 0 -0 -0 0 0 -0 -0 -0 -0 -0 0 0 0 -0 -0 -0 -0 -1 -1 -0 1 3 5 7 9 11 13 14 15 15 15 14 12 10 8 6 4 2 1 -1
2 2 2 1 1 1 1 1 1 0 0 0 0 0 -0 -0 -1 -0 -0 0 1 1 1 0 0 0 0 0 0 0 -0 -0 -0 -0 -0 -0 -0 -1 -1 -0 -0 -1 -1 -1 -1 0 1 3 5 7 9 10 11 11 11 11 10 9 8 6 5 3 1 -0 -1 -2 -3 -4 -4
1 1 1 1 1 1 1 1 0 0 0 0 0 -0 -0 -0 0 1 1 1 1 1 1 1 0 0 0 -0 -0 -0 -0 -1 -1 -1 -1 -1 -1 -1 -2 -1 -1 -0 1 2 4 5 7 8 9 9 9 8 7 6 4 3 2 1 -0 -1 -2 -3 -3 -3 -3 -3 -2 -2 -2
0 1 1 1 1 1 1 1 1 1 1 1 1 1 1 1 1 1 1 0 0 -0 -0 -1 -1 -1 -1 -1 -1 -2 -2 -2 -2 -1 -1 -1 0 1 2 4 5 6 6 7 7 7 7 6 5 4 2 1 -0 -1 -2 -2 -2 -3 -3 -3 -3 -3 -3 -3 -2 -1 -1 -1 -1
1 1 1 1 2 2 1 2 2 2 2 1 1 1 0 -0 -0 -1 -1 -2 -2 -2 -2 -2 -2 -2 -1 -1 -1 -0 1 1 2 3 4 5 6 6 7 7 6 6 5 4 3 2 1 -0 -1 -1 -2 -2 -2 -2 -3 -3 -2 -2 -2 -1 -1 -1 -1 -1 -2 -2 -1 -1 -0
0 0 0 1 1 2 2 1 1 0 -0 -1 -1 -2 -3 -3 -3 -3 -3 -2 -2 -1 -0 0 1 1 2 3 4 4 5 5 5 5 5 5 4 4 2 2 1 0 -1 -1 -2 -2 -2 -2 -2 -2 -2 -1 -1 -1 -1 -1 -1 -0 -0 -0 0 0 0 -0 -1 -1 -1 -1 -0
-1 -1 -1 -1 -1 -1 -1 -2 -2 -3 -3 -3 -3 -2 -2 -1 0 1 2 3 3 4 4 4 4 4 4 4 4 3 3 2 2 1 1 -0 -0 -1 -1 -2 -2 -2 -2 -1 -1 -1 -1 -1 -0 -0 0 0 1 1 1 1 0 0 1 1 1 1 1 0 0 -0 -0 -1 -1
-1 -0 -0 -1 -1 -1 -1 -0 0 1 2 2 3 4 5 6 7 7 6 6 5 4 3 3 2 2 1 0 -0 -1 -1 -1 -1 -1 -1 -1 -1 -1 -1 -1 -1 -1 -1 -0 0 0 1 1 1 1 1 1 2 1 1 1 1 1 1 0 0 0 -0 -0 -0 -0 -1 -1 -1
3 4 5 5 5 6 6 7 7 8 8 9 9 9 8 7 6 4 3 2 1 0 -0 -0 -0 -1 -1 -1 -1 -1 -1 -1 -1 -1 -1 -1 -1 -0 -0 1 1 1 1 1 1 1 1 1 1 1 1 1 1 1 1 1 1 1 1 0 0 0 0 0 0 0 -0 -1 -1
8 10 11 12 12 12 11 10 10 9 8 7 6 4 3 1 0 -0 -1 -1 -1 -1 -1 -1 -1 -1 -1 -1 -1 -1 -1 -0 -0 0 1 1 1 1 1 1 1 1 1 1 1 1 0 0 -0 -0 -0 -0 0 0 0 1 1 1 1 2 1 1 1 1 1 1 1 1 1
13 13 13 13 11 10 8 6 5 4 2 1 0 -1 -1 -1 -1 -1 -1 -1 -1 -1 -0 -0 -0 -0 -0 0 0 1 1 1 1 1 1 1 1 1 1 1 0 0 -0 -0 -0 -0 -0 -0 -0 -0 -0 -0 0 0 1 1 1 2 2 2 2 2 1 1 1 1 1 1 1
9 8 7 6 4 3 2 1 0 -0 -1 -1 -1 -1 -1 -1 -1 -0 -0 -0 0 0 0 1 1 1 1 1 1 1 2 1 1 1 1 1 0 -0 -0 -1 -1 -1 -1 -0 -0 -0 0 1 1 1 1 1 1 1 1 1 1 1 2 2 2 1 1 1 0 0 0 0 0
2 1 1 0 -0 -0 -1 -1 -1 -1 -1 -1 -0 -0 -0 -0 0 0 0 1 1 1 1 1 1 1 1 1 1 1 1 0 0 0 0 -0 -0 -0 -0 -1 -1 -0 0 0 -0 0 0 1 1 1 1 1 1 0 0 -0 0 1 1 1 1 1 1 1 0 0 1 1 1
-0 -0 -0 -0 -0 -0 -0 -0 -0 -0 -0 0 0 0 0 1 1 1 1 1 1 1 1 1 1 1 1 0 0 0 0 0 0 1 1 1 1 1 0 -0 -1 -1 -0 0 -0 -0 -0 -0 -0 -0 0 0 0 0 0 0 0 0 1 1 1 1 1 0 0 1 1 2 2
0 0 0 0 0 0 0 0 0 0 0 1 1 1 1 1 1 1 1 1 1 1 0 0 0 1 1 0 0 1 1 1 1 1 1 1 1 1 0 -1 -2 -2 -2 -1 -1 -1 -1 -1 -1 -1 -1 -0 -0 -0 0 1 1 1 1 1 1 0 0 0 0 0 1 2 2
0 1 1 1 1 1 1 1 1 1 1 1 1 1 1 1 1 1 1 1 1 1 1 1 1 1 1 1 1 0 0 1 1 1 0 0 0 0 -0 -1 -2 -3 -3 -2 -2 -1 -1 -1 -1 -1 -1 -0 -0 -0 0 1 1 2 2 2 1 0 0 0 1 1 2 2 3
1 1 1 1 1 1 1 1 1 1 1 1 1 1 1 1 1 1 1 1 1 1 1 1 1 1 0 0 0 -0 -1 -1 0 0 0 -0 -0 0 0 -0 -2 -3 -3 -2 -2 -2 -2 -1 -1 -1 -1 0 -0 0 1 1 2 2 2 2 1 1 1 1 2 3 3 4 5
1 1 1 1 1 1 1 0 0 0 1 1 1 1 1 1 1 1 1 1 1 1 0 -0 -0 -0 -0 0 0 -0 -1 -1 -1 0 1 1 0 1 1 1 -0 -1 -1 -1 -1 -1 -1 -1 -1 -1 -1 0 0 1 1 2 2 2 2 2 2 1 1 2 3 4 4 4 5
1 1 0 0 0 0 0 1 1 1 1 1 1 1 1 1 1 1 1 1 1 0 0 -0 -1 -1 -0 0 1 0 -1 -1 -1 -0 1 1 1 2 2 2 2 1 0 0 -0 -0 -1 -1 -1 -1 -1 -1 -0 0 1 2 2 2 1 1 2 2 1 1 2 4 4 3 4
0 0 0 1 1 1 1 1 1 1 1 2 1 1 1 1 1 1 1 1 1 1 0 0 -0 -0 0 1 1 1 1 -0 -1 -0 1 1 2 2 2 3 2 2 1 1 1 -0 -1 -1 -1 -2 -2 -1 -1 -1 0 2 2 2 1 0 1 1 2 1 1 2 3 4 4
Height
5661 5663 5666 5668 5671 5672 5674 5676 5677 5678 5679 5680 5681 5682 5683 5685 5686 5687 5689 5691 5692 5693 5694 5695 5696 5697 5698 5699 5700 5700 5701 5701 5702 5702 5702 5703 5704 5705 5705 5706 5706 5706 5706 5706 5707 5707 5707 5707 5707 5707 5707 5706 5706 5706 5706 5706 5706 5706 5706 5706 5705 5704 5704 5703 5703 5703 5703 5702 5702
5658 5661 5664 5667 5668 5670 5672 5673 5674 5675 5676 5677 5678 5679 5681 5682 5683 5685 5686 5687 5689 5690 5691 5692 5693 5694 5695 5696 5697 5697 5698 5698 5698 5699 5699 5700 5701 5702 5702 5702 5703 5703 5703 5703 5704 5704 5704 5704 5704 5704 5703 5703 5703 5703 5703 5702 5703 5703 5703 5702 5702 5701 5701 5700 5700 5699 5699 5699 5698
5656 5659 5662 5664 5666 5667 5669 5670 5671 5672 5672 5674 5675 5677 5678 5680 5681 5682 5683 5685 5686 5687 5688 5689 5690 5691 5692 5693 5694 5694 5695 5695 5695 5696 5696 5697 5697 5698 5699 5699 5700 5700 5700 5700 5701 5701 5701 5701 5701 5700 5700 5699 5699 5699 5699 5699 5699 5699 5699 5698 5698 5697 5697 5696 5696 5695 5695 5695 5694
5653 5656 5658 5660 5662 5664 5665 5666 5667 5669 5670 5671 5673 5674 5676 5677 5678 5679 5681 5682 5683 5684 5685 5686 5687 5689 5689 5690 5691 5691 5692 5692 5692 5692 5693 5693 5694 5695 5696 5696 5697 5697 5697 5697 5698 5698 5698 5698 5697 5697 5697 5697 5696 5696 5696 5696 5695 5695 5695 5694 5694 5693 5692 5692 5691 5691 5691 5690 5690
5651 5653 5655 5657 5659 5661 5662 5663 5665 5666 5667 5669 5670 5672 5673 5674 5675 5677 5678 5679 5680 5682 5683 5684 5685 5686 5687 5687 5688 5688 5689 5689 5689 5690 5690 5691 5691 5692 5693 5693 5693 5693 5693 5694 5694 5694 5694 5694 5694 5694 5693 5693 5693 5692 5692 5692 5692 5691 5691 5690 5690 5689 5689 5688 5688 5687 5687 5687 5687
5648 5650 5652 5654 5656 5657 5659 5660 5662 5663 5665 5667 5668 5669 5670 5672 5673 5674 5675 5677 5678 5679 5680 5681 5682 5683 5683 5684 5685 5685 5686 5687 5687 5687 5687 5687 5688 5689 5690 5690 5690 5690 5690 5690 5690 5690 5690 5690 5690 5690 5689 5689 5689 5689 5689 5688 5688 5687 5687 5687 5686 5686 5686 5685 5685 5685 5685 5684 5684
5645 5647 5649 5651 5652 5654 5656 5657 5659 5661 5662 5664 5665 5667 5668 5669 5671 5672 5673 5674 5675 5676 5677 5678 5679 5680 5681 5681 5682 5682 5683 5684 5684 5684 5684 5685 5685 5686 5686 5687 5687 5687 5687 5687 5687 5687 5687 5686 5687 5686 5686 5686 5686 5686 5685 5685 5685 5685 5684 5684 5683 5683 5682 5682 5682 5682 5682 5681 5680
5642 5644 5646 5647 5649 5651 5653 5655 5656 5658 5660 5662 5663 5664 5666 5667 5668 5669 5671 5672 5672 5673 5674 5675 5676 5677 5678 5678 5679 5680 5680 5681 5681 5682 5682 5682 5682 5682 5683 5683 5683 5684 5684 5684 5683 5683 5683 5683 5684 5683 5683 5683 5683 5683 5682 5682 5682 5682 5682 5682 5681 5680 5680 5679 5678 5678 5678 5677 5677
5640 5641 5643 5645 5647 5649 5651 5652 5654 5656 5657 5659 5661 5662 5663 5665 5666 5667 5668 5669 5670 5671 5672 5673 5673 5674 5675 5676 5676 5677 5677 5678 5678 5678 5679 5679 5679 5679 5680 5680 5680 5681 5681 5681 5680 5680 5680 5680 5679 5679 5679 5679 5680 5679 5679 5679 5679 5678 5678 5678 5678 5678 5677 5676 5675 5675 5675 5674 5673
5637 5639 5640 5642 5644 5646 5648 5650 5652 5654 5656 5657 5658 5660 5661 5662 5663 5664 5665 5666 5667 5668 5669 5670 5671 5671 5672 5673 5673 5674 5674 5675 5675 5675 5676 5676 5676 5676 5676 5677 5677 5677 5677 5677 5677 5677 5677 5676 5676 5676 5676 5676 5676 5676 5676 5676 5675 5675 5675 5674 5674 5674 5673 5672 5672 5672 5671 5670 5670
5634 5636 5638 5640 5642 5644 5646 5648 5650 5652 5653 5655 5656 5657 5659 5660 5661 5662 5662 5663 5664 5665 5666 5667 5667 5668 5669 5669 5670 5671 5671 5671 5672 5672 5672 5672 5672 5673 5673 5673 5673 5673 5673 5673 5673 5673 5673 5673 5672 5672 5672 5672 5672 5672 5672 5672 5672 5672 5671 5671 5671 5670 5670 5669 5668 5668 5667 5666 5666
5632 5634 5636 5638 5640 5642 5644 5646 5648 5649 5651 5652 5654 5655 5656 5657 5658 5659 5660 5661 5662 5662 5663 5664 5664 5665 5666 5666 5667 5667 5667 5668 5668 5669 5669 5669 5669 5669 5669 5670 5670 5670 5670 5670 5670 5670 5669 5669 5669 5669 5669 5669 5669 5669 5668 5668 5668 5667 5667 5667 5667 5666 5666 5665 5664 5664 5663 5662 5661
5630 5632 5634 5636 5638 5640 5642 5644 5646 5647 5649 5650 5652 5653 5654 5655 5656 5657 5657 5658 5659 5660 5660 5661 5662 5662 5662 5663 5663 5664 5664 5665 5665 5665 5665 5665 5666 5666 5666 5666 5666 5666 5666 5666 5666 5666 5666 5666 5666 5666 5666 5666 5665 5665 5664 5664 5664 5663 5663 5662 5662 5661 5660 5660 5659 5659 5658 5657 5657
5628 5630 5632 5634 5637 5638 5640 5642 5643 5645 5647 5648 5649 5650 5651 5652 5653 5654 5655 5656 5657 5657 5657 5658 5659 5659 5659 5660 5660 5661 5661 5661 5662 5662 5662 5662 5662 5662 5663 5663 5663 5663 5663 5663 5663 5663 5663 5663 5663 5663 5662 5662 5662 5661 5661 5661 5660 5660 5659 5658 5657 5657 5656 5655 5654 5654 5653 5653 5652
5627 5628 5631 5633 5635 5637 5638 5640 5642 5643 5644 5646 5647 5648 5649 5650 5651 5652 5652 5653 5654 5654 5655 5655 5656 5656 5656 5657 5657 5657 5657 5658 5658 5658 5658 5659 5659 5659 5660 5660 5660 5660 5660 5660 5660 5660 5660 5660 5659 5659 5659 5658 5658 5658 5658 5658 5658 5657 5657 5656 5655 5654 5652 5651 5650 5650 5650 5649 5649
5625 5627 5629 5631 5633 5635 5637 5638 5639 5641 5642 5643 5644 5645 5646 5647 5648 5649 5650 5651 5651 5652 5652 5652 5653 5653 5653 5653 5654 5654 5654 5655 5655 5655 5656 5656 5656 5657 5657 5657 5657 5657 5657 5657 5657 5657 5656 5656 5656 5656 5655 5655 5655 5655 5656 5656 5656 5655 5654 5653 5652 5651 5649 5648 5647 5647 5647 5647 5647
5623 5625 5627 5629 5631 5633 5634 5636 5637 5638 5640 5641 5642 5643 5644 5645 5646 5647 5647 5648 5648 5649 5649 5650 5650 5650 5650 5651 5651 5651 5652 5652 5652 5653 5653 5653 5654 5654 5654 5654 5654 5654 5654 5654 5653 5653 5653 5653 5652 5652 5652 5652 5652 5652 5653 5653 5653 5652 5651 5650 5649 5647 5646 5645 5644 5644 5644 5644 5643
5621 5623 5626 5627 5629 5631 5632 5634 5635 5636 5637 5638 5639 5640 5642 5642 5644 5644 5645 5645 5646 5646 5647 5647 5647 5647 5648 5648 5648 5649 5649 5649 5650 5650 5650 5651 5651 5651 5651 5651 5651 5650 5650 5650 5650 5650 5650 5649 5649 5649 5649 5649 5649 5649 5649 5650 5650 5649 5648 5647 5645 5644 5642 5642 5641 5641 5641 5641 5640
5620 5622 5624 5626 5627 5629 5630 5631 5632 5633 5634 5635 5637 5638 5639 5640 5641 5642 5642 5642 5643 5643 5644 5644 5645 5645 5646 5646 5646 5647 5647 5647 5647 5647 5647 5647 5647 5647 5647 5647 5647 5647 5647 5647 5647 5647 5647 5646 5646 5646 5646 5646 5646 5646 5646 5646 5646 5646 5645 5643 5642 5641 5639 5639 5638 5638 5638 5637 5636
5618 5620 5622 5623 5625 5627 5628 5629 5630 5631 5632 5633 5635 5636 5637 5637 5638 5639 5639 5640 5641 5641 5642 5642 5643 5643 5643 5644 5644 5644 5644 5644 5644 5644 5644 5644 5644 5644 5644 5645 5644 5644 5644 5644 5644 5644 5643 5643 5643 5643 5643 5643 5643 5642 5642 5642 5642 5641 5641 5639 5638 5637 5637 5636 5636 5635 5634 5633 5632
5617 5618 5620 5621 5623 5624 5625 5626 5627 5629 5630 5631 5632 5633 5634 5635 5636 5637 5637 5638 5639 5639 5640 5640 5641 5641 5641 5641 5641 5641 5641 5641 5642 5641 5641 5642 5642 5642 5642 5642 5642 5641 5641 5641 5641 5641 5640 5640 5640 5640 5640 5640 5639 5639 5638 5638 5637 5637 5636 5636 5635 5634 5633 5632 5631 5630 5629 5628 5627
5615 5617 5618 5620 5621 5622 5624 5625 5626 5627 5628 5629 5631 5632 5632 5633 5634 5635 5636 5636 5637 5637 5638 5638 5638 5638 5639 5639 5639 5639 5639 5639 5639 5639 5639 5639 5639 5638 5638 5638 5638 5638 5638 5638 5638 5638 5637 5637 5637 5637 5637 5636 5636 5635 5635 5634 5633 5633 5632 5632 5631 5630 5629 5628 5627 5626 5624 5623 5622
5614 5616 5617 5619 5620 5622 5623 5624 5625 5626 5627 5628 5629 5630 5631 5632 5632 5633 5634 5634 5635 5635 5636 5636 5636 5636 5636 5636 5637 5637 5637 5637 5636 5636 5636 5636 5636 5636 5636 5636 5636 5635 5635 5635 5635 5635 5635 5634 5634 5633 5633 5632 5632 5631 5631 5630 5629 5629 5628 5627 5626 5625 5624 5623 5622 5621 5620 5619 5618
5613 5615 5617 5618 5620 5621 5622 5623 5624 5626 5627 5627 5628 5629 5630 5630 5631 5632 5632 5632 5633 5633 5634 5634 5634 5634 5634 5634 5634 5634 5634 5634 5634 5634 5634 5634 5634 5633 5633 5633 5633 5633 5633 5633 5632 5632 5632 5631 5631 5630 5629 5629 5628 5627 5627 5626 5625 5625 5624 5623 5622 5622 5621 5620 5619 5618 5617 5616 5615
5613 5614 5616 5617 5619 5620 5621 5622 5623 5624 5625 5626 5627 5627 5628 5629 5629 5630 5631 5631 5631 5632 5632 5632 5632 5632 5632 5632 5632 5632 5632 5632 5632 5632 5632 5632 5632 5632 5632 5631 5631 5631 5630 5630 5629 5629 5628 5627 5627 5627 5626 5625 5625 5624 5623 5623 5622 5622 5621 5620 5619 5618 5617 5617 5615 5614 5613 5612 5611
5612 5614 5615 5617 5618 5619 5621 5622 5623 5623 5624 5625 5626 5626 5627 5627 5628 5628 5629 5629 5630 5630 5630 5630 5630 5630 5630 5631 5631 5630 5630 5630 5630 5630 5630 5630 5630 5629 5629 5629 5628 5628 5627 5627 5626 5626 5625 5625 5624 5624 5623 5622 5622 5621 5621 5620 5619 5618 5617 5617 5616 5615 5614 5613 5612 5611 5609 5608 5607
5612 5614 5615 5616 5617 5619 5620 5621 5622 5622 5623 5624 5624 5625 5626 5626 5627 5627 5628 5628 5628 5629 5629 5629 5629 5629 5629 5629 5629 5629 5628 5628 5628 5628 5628 5627 5627 5627 5627 5626 5626 5625 5625 5624 5624 5623 5623 5622 5622 5621 5620 5620 5619 5618 5617 5617 5616 5615 5614 5613 5612 5611 5610 5609 5607 5606 5605 5604 5602
5612 5614 5615 5616 5617 5618 5619 5620 5621 5622 5622 5623 5623 5624 5625 5625 5626 5627 5627 5627 5627 5627 5627 5627 5627 5627 5627 5627 5627 5627 5627 5626 5626 5626 5626 5625 5625 5625 5624 5624 5623 5623 5622 5622 5621 5621 5620 5619 5619 5618 5617 5617 5616 5615 5614 5613 5612 5611 5610 5609 5608 5607 5606 5604 5603 5602 5601 5599 5598
5612 5614 5615 5616 5617 5618 5619 5620 5621 5621 5622 5623 5623 5624 5624 5625 5625 5626 5626 5626 5626 5626 5626 5626 5626 5626 5625 5625 5625 5625 5625 5624 5624 5624 5624 5623 5623 5622 5622 5622 5621 5621 5620 5619 5619 5618 5617 5617 5616 5615 5614 5613 5612 5612 5611 5610 5609 5607 5607 5605 5604 5602 5601 5600 5598 5597 5596 5594 5593
5612 5614 5615 5616 5617 5618 5619 5620 5620 5621 5622 5622 5623 5623 5624 5624 5624 5624 5625 5625 5625 5625 5624 5624 5624 5624 5624 5624 5623 5623 5623 5622 5622 5622 5622 5621 5621 5620 5620 5619 5618 5618 5617 5617 5616 5615 5614 5613 5613 5612 5611 5610 5609 5608 5607 5606 5605 5603 5602 5601 5600 5598 5597 5596 5594 5593 5591 5590 5588
5613 5614 5615 5617 5617 5618 5619 5619 5620 5621 5621 5622 5622 5622 5623 5623 5623 5623 5623 5623 5623 5623 5623 5622 5622 5622 5622 5622 5622 5621 5621 5621 5620 5620 5619 5619 5618 5618 5617 5617 5616 5615 5614 5614 5613 5612 5611 5610 5609 5608 5607 5606 5605 5604 5603 5602 5601 5599 5598 5597 5596 5594 5593 5592 5590 5589 5587 5586 5584
5614 5615 5616 5617 5617 5618 5618 5619 5619 5620 5620 5621 5621 5622 5622 5622 5622 5622 5622 5622 5622 5621 5621 5621 5621 5621 5620 5620 5620 5619 5619 5619 5618 5618 5617 5617 5616 5615 5615 5614 5613 5612 5611 5611 5610 5609 5608 5607 5606 5605 5603 5602 5601 5600 5599 5598 5597 5596 5594 5593 5592 5590 5589 5587 5586 5584 5583 5581 5579
5614 5615 5616 5616 5617 5617 5618 5618 5619 5619 5620 5620 5620 5621 5621 5621 5621 5620 5620 5620 5620 5620 5620 5619 5619 5619 5619 5618 5618 5617 5617 5617 5616 5615 5615 5614 5613 5612 5612 5611 5610 5609 5608 5607 5606 5605 5604 5603 5602 5601 5600 5599 5597 5597 5595 5594 5593 5592 5590 5589 5587 5586 5584 5582 5581 5579 5577 5576 5574
5614 5615 5615 5616 5617 5617 5617 5618 5618 5619 5619 5619 5619 5619 5619 5619 5619 5619 5619 5618 5618 5618 5618 5617 5617 5617 5617 5616 5616 5615 5615 5614 5613 5612 5612 5611 5610 5609 5608 5607 5607 5606 5605 5604 5603 5602 5601 5600 5599 5597 5597 5595 5594 5592 5591 5590 5588 5587 5586 5584 5582 5581 5579 5577 5576 5574 5572 5570 5568
5614 5614 5615 5616 5616 5617 5617 5617 5617 5617 5618 5618 5618 5618 5618 5618 5617 5617 5617 5617 5617 5616 5616 5616 5615 5615 5614 5614 5613 5613 5612 5612 5611 5610 5609 5608 5607 5607 5606 5605 5604 5602 5602 5600 5599 5598 5597 5596 5595 5594 5592 5591 5590 5588 5587 5585 5584 5582 5581 5579 5577 5576 5574 5572 5570 5568 5566 5564 5562
5613 5614 5615 5615 5615 5616 5616 5616 5616 5617 5617 5617 5617 5617 5616 5616 5616 5616 5615 5615 5615 5614 5614 5614 5613 5613 5612 5612 5611 5610 5610 5609 5608 5607 5607 5606 5605 5604 5603 5602 5600 5599 5598 5597 5596 5594 5593 5592 5590 5589 5588 5587 5585 5583 5582 5581 5579 5577 5576 5574 5572 5570 5568 5566 5564 5562 5560 5558 5556
5613 5613 5614 5614 5615 5615 5615 5615 5615 5615 5615 5615 5615 5615 5615 5615 5614 5614 5614 5613 5613 5613 5612 5612 5612 5611 5611 5610 5609 5608 5607 5607 5606 5605 5604 5603 5602 5601 5600 5598 5597 5595 5594 5593 5591 5590 5589 5587 5586 5584 5583 5582 5580 5578 5577 5575 5573 5572 5570 5568 5566 5563 5562 5559 5557 5555 5553 5551 5549
5612 5612 5613 5613 5613 5614 5614 5614 5614 5614 5614 5614 5614 5614 5613 5613 5613 5613 5612 5612 5612 5612 5611 5611 5610 5609 5608 5607 5607 5606 5605 5604 5603 5602 5601 5600 5599 5597 5596 5595 5593 5592 5590 5588 5587 5586 5584 5582 5581 5579 5578 5576 5574 5573 5571 5569 5567 5565 5563 5561 5559 5557 5554 5552 5550 5548 5546 5544 5542
5612 5612 5612 5612 5612 5613 5613 5613 5613 5613 5613 5613 5613 5612 5612 5612 5612 5612 5611 5611 5610 5610 5609 5608 5607 5607 5606 5605 5604 5603 5602 5601 5600 5598 5597 5596 5595 5594 5592 5591 5589 5587 5586 5584 5582 5581 5579 5577 5575 5573 5572 5570 5568 5566 5564 5562 5561 5558 5556 5554 5552 5550 5548 5546 5543 5541 5539 5537 5534
5611 5611 5612 5612 5612 5612 5612 5612 5612 5612 5612 5612 5612 5612 5611 5611 5610 5610 5609 5608 5608 5607 5607 5606 5605 5604 5603 5602 5601 5600 5598 5597 5596 5595 5594 5592 5591 5589 5588 5587 5585 5583 5581 5579 5577 5575 5573 5571 5569 5567 5565 5563 5562 5560 5558 5556 5554 5552 5550 5548 5546 5543 5541 5539 5537 5534 5532 5529 5527
5611 5611 5611 5611 5611 5611 5611 5611 5611 5611 5611 5610 5610 5610 5609 5609 5608 5607 5607 5606 5605 5605 5604 5603 5602 5601 5600 5599 5597 5597 5595 5594 5592 5591 5589 5588 5586 5585 5583 5582 5580 5578 5576 5574 5572 5570 5567 5566 5563 5561 5559 5557 5556 5554 5552 5550 5548 5546 5543 5541 5539 5537 5534 5532 5529 5527 5524 5522 5519